Flag for Italy Weather past 2 weeks in Palermo, Italy

Now
68 °F

Scattered clouds.


Feels Like: 68 °F
Forecast: 57 / 71 °F
Wind: 9 mph from Northwest

Location: Palermo / Punta Raisi

Current Time: May 28, 2015 at 9:07:54 PM

Latest Report: May 28, 2015 at 8:20 PM


Visibility: N/A

Pressure: 30.07 "Hg

Humidity: 83%

Dew point: 63 °F

Location of PalermoLocation

Historic Weather in Palermo — Graph

°F

Palermo temperature yesterday

Maximum temperature yesterday: 68 °F (at 10:50 AM)
Minimum temperature yesterday: 57 °F (at 3:50 AM)
Average temperature yesterday: 65 °F

Past Weeks' High & Low Weather Summary

 TemperatureHumidityPressure
High93 °F (May 15, 12:50 PM)100% (May 17, 9:20 AM)30.21 "Hg (May 17, 9:20 AM)
Low57 °F (May 17, 5:20 AM)14% (May 14, 10:20 PM)29.77 "Hg (May 15, 2:20 PM)
Average67 °F72%29.94 "Hg
* Reported May 13 7:20 PM — May 28 7:50 PM, Palermo, Weather by CustomWeather, © 2015

Note: Actual official high and low records may vary slightly from our data, if they occured in-between our weather recording intervals... More about our weather records

Advertising

Palermo weather history for previous 24 hours

 ConditionsComfort  
Time TempWeatherWind HumidityBarometerVisibility
7:50 PM
Thu, May 28
68 °FScattered clouds.10 mph78%30.07 "HgN/A
7:20 PM68 °FScattered clouds.10 mph83%30.07 "HgN/A
6:50 PM68 °FScattered clouds.12 mph78%30.07 "HgN/A
6:20 PM68 °FScattered clouds.10 mph83%30.07 "HgN/A
5:50 PM68 °FScattered clouds.13 mph83%30.07 "HgN/A
5:20 PM68 °FScattered clouds.10 mph78%30.07 "HgN/A
4:50 PM68 °FScattered clouds.12 mph78%30.07 "HgN/A
4:20 PM68 °FScattered clouds.12 mph78%30.07 "HgN/A
3:50 PM68 °FScattered clouds.14 mph83%30.07 "HgN/A
3:20 PM68 °FScattered clouds.12 mph83%30.07 "HgN/A
2:50 PM68 °FPassing clouds.13 mph83%30.07 "HgN/A
2:20 PM68 °FPassing clouds.12 mph83%30.07 "HgN/A
1:50 PM68 °FScattered clouds.10 mph83%30.07 "HgN/A
1:20 PM68 °FPassing clouds.10 mph83%30.07 "HgN/A
12:50 PM68 °FPassing clouds.10 mph83%30.07 "HgN/A
12:20 PM68 °FPassing clouds.10 mph78%30.07 "HgN/A
11:50 AM68 °FPassing clouds.12 mph78%30.07 "HgN/A
11:20 AM68 °FScattered clouds.10 mph78%30.07 "HgN/A
10:50 AM66 °FScattered clouds.9 mph83%30.07 "HgN/A
10:20 AM66 °FScattered clouds.10 mph83%30.07 "HgN/A
9:50 AM66 °FPartly sunny.10 mph83%30.07 "HgN/A
9:20 AM66 °FScattered clouds.12 mph83%30.04 "HgN/A
8:50 AM66 °FScattered clouds.13 mph83%30.04 "HgN/A
8:20 AM66 °FBroken clouds.13 mph83%30.04 "HgN/A
7:50 AM66 °FBroken clouds.13 mph83%30.04 "HgN/A
7:20 AM66 °FLight rain. Broken clouds.14 mph83%30.04 "HgN/A
6:50 AM66 °FScattered clouds.13 mph83%30.01 "HgN/A
6:20 AM66 °FPassing clouds.13 mph83%30.01 "HgN/A
5:50 AM66 °FPassing clouds.12 mph83%30.01 "HgN/A
5:20 AM64 °FPassing clouds.12 mph88%30.01 "HgN/A
4:50 AM66 °FPassing clouds.13 mph83%30.01 "HgN/A
3:50 AM66 °FPassing clouds.12 mph83%30.01 "HgN/A
3:20 AM66 °FPassing clouds.13 mph83%30.01 "HgN/A
2:20 AM66 °FPassing clouds.12 mph83%30.01 "HgN/A
1:50 AM66 °FPassing clouds.12 mph83%30.01 "HgN/A
1:20 AM66 °FPassing clouds.13 mph83%30.01 "HgN/A
12:50 AM66 °FPassing clouds.14 mph83%30.01 "HgN/A
12:20 AM66 °FPassing clouds.13 mph83%30.01 "HgN/A
11:50 PM
Wed, May 27
66 °FPassing clouds.10 mph83%30.01 "HgN/A
11:20 PM66 °FPassing clouds.10 mph83%30.01 "HgN/A
10:50 PM66 °FPassing clouds.9 mph83%30.01 "HgN/A
10:20 PM66 °FPassing clouds.10 mph83%30.01 "HgN/A
9:50 PM66 °FPassing clouds.10 mph83%30.01 "HgN/A
9:20 PM66 °FScattered clouds.12 mph83%29.98 "HgN/A
Weather by CustomWeather, © 2015

See weather overviewHow to use our weather pages